Location: Jesenik
(50.2330°N, 17.2000°E)
Time: 20:59:51
(UTC+01:00)

ISS - Visible Passes

Search period start: 24 March 2019 00:00
Search period end: 03 April 2019 01:00
Orbit: 408 x 411 km, 51.6° (Epoch: 24 March)

Date Brightness Start Highest point End Pass type
(mag) Time Alt. Az. Time Alt. Az. Time Alt. Az.
24 Mar -3.5 19:32:44 10° SW 19:35:55 49° SSE 19:37:09 30° E visible
24 Mar -1.0 21:09:11 10° W 21:09:56 16° W 21:09:56 16° W visible
25 Mar -2.9 18:42:21 10° SW 18:45:21 33° SSE 18:48:23 10° E visible
25 Mar -3.7 20:18:28 10° W 20:21:38 77° WNW 20:21:38 77° WNW visible
26 Mar -3.9 19:27:49 10° WSW 19:31:07 81° SSE 19:33:13 21° ENE visible
26 Mar -1.5 21:04:31 10° W 21:05:59 24° WNW 21:05:59 24° WNW visible
27 Mar -3.6 20:13:47 10° W 20:17:05 67° N 20:17:27 60° NE visible
28 Mar -3.7 19:23:03 10° W 19:26:20 74° N 19:28:52 16° ENE visible
28 Mar -1.9 20:59:46 10° WNW 21:01:37 30° WNW 21:01:37 30° WNW visible
29 Mar -3.7 20:09:02 10° W 20:12:20 68° N 20:12:58 52° ENE visible
29 Mar -0.4 21:45:41 10° WNW 21:45:43 10° WNW 21:45:43 10° WNW visible
30 Mar -3.5 19:18:16 10° W 19:21:35 66° N 19:24:16 14° E visible
30 Mar -2.3 20:54:56 10° WNW 20:57:01 35° W 20:57:01 35° W visible
31 Mar -3.9 21:04:12 10° WNW 21:07:31 85° NNE 21:08:18 49° E visible
31 Mar -0.6 22:40:58 10° W 22:41:03 11° W 22:41:03 11° W visible
01 Apr -3.7 20:13:27 10° WNW 20:16:45 72° N 20:19:35 13° E visible
01 Apr -2.4 21:50:06 10° W 21:52:20 33° WSW 21:52:20 33° WSW visible
02 Apr -3.7 20:59:18 10° WNW 21:02:35 63° SSW 21:03:36 39° SE visible
